View from above orbital plane
|
View from above satellite
|
Ground track
|
The orbit data is extracted from the following two-line orbital elements,
1 38758U 12048A 21101.82008222 0.00000000 00000-0 00000-0 0 08
2 38758 63.4359 351.8053 0149787 359.8318 0.1682 13.40821348 02
Epoch (UTC): | 11 April 2021 19:40:55 |
Eccentricity: | 0.0149787 |
inclination: | 63.4359° |
perigee height: | 994 km |
apogee height: | 1218 km |
right ascension of ascending node: | 351.8053° |
argument of perigee: | 359.8318° |
revolutions per day: | 13.40821348 |
mean anomaly at epoch: | 0.1682° |
orbit number at epoch: | 0 |
The dashed part of the orbit path shows where the satellite is in the earth's shadow,
|
|